Location: Diebersbach
(48.5163°N, 8.0558°E)
Time: 14:19:37
(UTC+00:00)

Cosmos 405 Rocket - Pass Details

Date: 20 June 2021
Orbit: 489 x 552 km, 81.3° (Epoch: 29 July)

Event Time Altitude Azimuth Distance (km) Brightness Sun altitude
Exits shadow 00:24:09 41° 180° (S) 730 2.9 -17.0°
Maximum altitude 00:25:21 79° 100° (E) 505 2.5 -17.0°
Drops below altitude 10° 00:29:03 10° 14° (NNE) 1,693 6.7 -16.8°
Sets 00:31:11 0° 13° (NNE) 2,583 8.1 -16.7°
